Tracking 18630 objects as of 25-May-2017
HD Live streaming from Space Station
objects crossing your sky now

MOZHAYETS

Track MOZHAYETS now!
10-day predictions
MOZHAYETS is classified as:


NORAD ID: 27560
Int'l Code: 2002-054B
Perigee: 679.0 km
Apogee: 737.1 km
Inclination: 98.2 °
Period: 98.8 minutes
Semi major axis: 7079 km
RCS: 1.03 m2 (large)
Launch date: November 28, 2002
Source: Commonwealth of Independent States (former USSR) (CIS)
Launch site: PLESETSK MISSILE AND SPACE COMPLEX (PKMTR)
Your satellite tracking list
Your tracking list is empty





NASA's NSSDC Master Catalog

Two Line Element Set (TLE):
1 27560U 02054B   17144.96665017 +.00000092 +00000-0 +30306-4 0  9995
2 27560 098.2041 279.7510 0041065 182.1348 289.2910 14.57614673769669
Source of the keplerian elements: AFSPC